Regional Weather Roundup
Issued by NWS

Home | Current Version | Previous Version | Graphics & Text | Print | Product List | Glossary On
Versions: 1 2 3 4 5 6 7 8 9 10 11 12 13 14 15 16 17 18 19 20 21 22 23 24 25 26 27
000
ASUS45 KTFX 051310
RWRMT
MONTANA REGIONAL WEATHER ROUNDUP
NATIONAL WEATHER SERVICE GREAT FALLS MT
700 AM MDT THU MAY 05 2016

NOTE: "FAIR" INDICATES FEW OR NO CLOUDS BELOW 12000 FEET WITH NO
SIGNIFICANT WEATHER AND/OR OBSTRUCTIONS TO VISIBILITY.

MTZ001>007-043-051400-
WEST OF THE DIVIDE

CITY           SKY/WX    TMP DP  RH WIND       PRES   REMARKS
KALISPELL      LGT RAIN  54  49  83 SW9       29.91R
MISSOULA       PTCLDY    48  41  76 NE7       29.96R
BUTTE          CLOUDY    39  32  76 E3        30.02R
MULLAN PASS    MOCLDY    48  38  68 SW7       30.01R
ANACONDA         N/A     50  32  50 S9        29.98R
DEER LODGE       N/A     45  34  65 CALM      29.98R
EUREKA           N/A     54  45  71 CALM        N/A
HAMILTON         N/A     43  37  81 E6        29.97R
LIBBY            N/A     52  46  82 CALM      29.94R
PLAINS           N/A     55  46  71 CALM      29.93R
$$

MTZ008-052>055-051400-
SOUTHWEST MONTANA

CITY           SKY/WX    TMP DP  RH WIND       PRES   REMARKS
BOZEMAN        CLOUDY    44  36  73 SE6       29.98R
DILLON         CLOUDY    49  31  49 CALM      29.99S
ENNIS          CLEAR     45  34  65 NE5       30.07S
THREE FORKS      N/A     41  27  57 CALM      29.96R
TWIN BRIDGES     N/A     43  30  60 E3        29.98S
$$

MTZ009-010-012-014-046-048-049-054-051400-
EAST SLOPES AND CENTRAL MONTANA

CITY           SKY/WX    TMP DP  RH WIND       PRES   REMARKS
CUT BANK       MOCLDY    51  41  68 N5        29.91R
GREAT FALLS    CLOUDY    45  39  79 W7        29.89R
MALMSTROM AFB  CLOUDY    44  41  91 S5        29.90R
HELENA         CLOUDY    51  35  54 CALM      29.95R
CHOTEAU          N/A     52  36  54 SW7       29.91S
CONRAD           N/A     48  47  97 CALM      29.93R
$$

MTZ011-013-016-021-045-047-050-051-051400-
NORTH CENTRAL MONTANA

CITY           SKY/WX    TMP DP  RH WIND       PRES   REMARKS
HAVRE          CLOUDY    48  44  86 W6        29.84R
LEWISTOWN      CLOUDY    51  36  56 SE6       29.93R
N BAR RANCH      N/A     50  36  57 NW6       29.96R
$$

MTZ017>020-022>027-061-062-051400-
NORTHEAST MONTANA

CITY           SKY/WX    TMP DP  RH WIND       PRES   REMARKS
GLASGOW        SUNNY     55  42  61 SE12      29.81S
JORDAN           N/A     49  45  86 CALM      29.84F
SIDNEY         SUNNY     54  45  71 S6        29.86S
WOLF POINT     SUNNY     51  44  77 CALM      29.84S
POPLAR           N/A     52  45  76 CALM      29.84S
SCOBEY           N/A     53  38  56 SW1       29.83S
$$

MTZ028>42-056>058-051400-
SOUTHCENTRAL AND SOUTHEAST MONTANA

CITY           SKY/WX    TMP DP  RH WIND       PRES   REMARKS
BAKER          SUNNY     50  43  77 E6        29.93S
BILLINGS       MOCLDY    57  35  43 SW16      29.92R
LIVINGSTON     CLOUDY    53  33  46 W10       29.97R
MILES CITY     SUNNY     56  44  64 S13       29.87S
EKALAKA          N/A     58  42  55 SE7       29.93S
FORSYTH          N/A     52  45  76 CALM      29.87R
LAUREL           N/A     53  37  54 SW2       29.92R
ROUNDUP          N/A     51  35  54 SW13      29.83R
$$

REGIONAL REPORTS...DAKOTAS

CITY           SKY/WX    TMP DP  RH WIND       PRES   REMARKS
WILLISTON      SUNNY     56  46  69 SW3       29.86R
MINOT          SUNNY     68  42  38 SW18      29.85R
DICKINSON      SUNNY     56  42  59 S9        29.90S
BEACH            N/A     55  46  71 S8        29.93S
CROSBY           N/A     57  45  62 SW14      29.84S
TIOGA            N/A     63  43  48 SW7       29.92R
WATFORD CITY     N/A     55  45  67 CALM      29.87S
BISMARCK       SUNNY     61  46  57 SW3       29.93R
GRAND FORKS    MOSUNNY   58  39  49 S10       29.84S
FARGO          SUNNY     57  34  41 S12       29.91R
BUFFALO SD       N/A     50  42  74 CALM      29.88S
RAPID CITY     SUNNY     49  43  80 E3        29.96S
$$

REGIONAL REPORTS...WYOMING/IDAHO/WASHINGTON

CITY           SKY/WX    TMP DP  RH WIND       PRES   REMARKS
GILLETTE       SUNNY     52  41  66 SE10      29.99R
SHERIDAN       MOSUNNY   49  41  74 NE5       29.95R
BUFFALO WY     CLOUDY    60  35  39 W6        30.00S
CODY           CLOUDY    57  30  35 W7        30.01R
YELLOWSTONE LA   N/A     30  27  88 CALM      30.20S
IDAHO FALLS    CLOUDY    45  36  70 N7        29.98S
SALMON         CLOUDY    41  34  75 CALM      29.97R
BOISE          PTCLDY    56  44  64 W7        29.88S
SPOKANE        CLOUDY    53  51  93 S8        29.94R FOG
$$

REGIONAL REPORTS...ALBERTA

CITY           SKY/WX    TMP DP  RH WIND       PRES   REMARKS
EDMONTON       CLOUDY    54  28  37 NW14      29.95R
CALGARY        MOCLDY    54  37  54 N18G25    29.94R
LETHBRIDGE     MOCLDY    63  43  48 SE3       29.86R
MEDICINE HAT   MOCLDY    52  43  71 SW6       29.83R
$$

REGIONAL REPORTS...SASKATCHEWAN

CITY           SKY/WX    TMP DP  RH WIND       PRES   REMARKS
SWIFT CURRENT  MOSUNNY   61  39  44 SW12G18   29.79S
SASKATOON      PTSUNNY   61  43  51 SW10      29.73R
$$




USA.gov is the U.S. government's official web portal to all federal, state and local government web resources and services.